Stations météo

réclame
Mon MeteoGroup
Goteborg/Landvetter, Suède (2526): Température de l'air & dewpoint: 17.04.2018 03:00:00 - 23.04.2018 03:00:00 (CEST)Goteborg/Landvetter, Suède (2526): Vitesse du vent: 17.04.2018 03:00:00 - 23.04.2018 03:00:00 (CEST)Goteborg/Landvetter, Suède (2526): Direction du vent: 17.04.2018 03:00:00 - 23.04.2018 03:00:00 (CEST)Goteborg/Landvetter, Suède (2526): reduced air pressure: 17.04.2018 03:00:00 - 23.04.2018 03:00:00 (CEST)Goteborg/Landvetter, Suède (2526): visibility: 17.04.2018 03:00:00 - 23.04.2018 03:00:00 (CEST)
Date & Time tt [°C] td [°C] ff [km/h] ff [knt] dd ppp [hPa] vv [km]
23.04.2018 03:00:00 6,3 2,7 14 8 SE 1009,6 50
23.04.2018 02:00:00 6,6 1,9 14 8 SE 1010,4 50
23.04.2018 01:00:00 7,0 1,1 14 8 SE 1011,1 50
23.04.2018 00:00:00 7,3 2,8 11 6 SE 1011,5 50
22.04.2018 23:00:00 7,3 2,4 14 8 SE 1012,0 50
22.04.2018 22:00:00 8,1 2,8 11 6 SSE 1012,7 50
22.04.2018 21:00:00 7,1 2,2 7 4 SW 1013,3 50
22.04.2018 20:00:00 8,9 2,0 11 6 SSW 1013,1 50
22.04.2018 19:00:00 11,6 1,8 14 8 SSW 1013,1 50
22.04.2018 18:00:00 12,4 3,9 11 6 SSW 1013,5 50
22.04.2018 17:00:00 12,9 4,6 22 12 SW 1014,3 45
22.04.2018 16:00:00 14,3 4,0 14 8 S 1014,3 30
22.04.2018 15:00:00 13,5 5,4 14 8 SW 1014,8 45
22.04.2018 14:00:00 12,9 5,1 7 4 SSW 1015,3 45
22.04.2018 13:00:00 12,5 3,7 7 4 SSE 1015,8 40
22.04.2018 12:00:00 10,8 4,3 0 0 N 1016,3 35
22.04.2018 11:00:00 8,8 4,2 4 2 SE 1017,0 35
22.04.2018 10:00:00 5,9 4,1 4 2 SSW 1017,2 35
22.04.2018 09:00:00 4,5 4,1 4 2 ENE 1017,3 12
22.04.2018 08:00:00 4,4 4,1 7 4 S 1017,4 2,9
22.04.2018 07:00:00 4,0 3,7 11 6 SSW 1017,1 0,7
22.04.2018 06:00:00 3,9 3,5 11 6 SSW 1016,9 1,4
22.04.2018 05:00:00 3,9 3,5 11 6 SSW 1016,8 1,2
22.04.2018 04:00:00 4,1 3,7 7 4 S 1017,1 4,0
22.04.2018 03:00:00 4,5 4,1 7 4 SW 1017,1 8
22.04.2018 02:00:00 4,6 4,2 14 8 SW 1017,0 5
22.04.2018 01:00:00 4,3 3,7 14 8 WSW 1017,1 7
22.04.2018 00:00:00 3,8 3,1 11 6 SW 1017,0 12
21.04.2018 23:00:00 4,0 3,1 11 6 SW 1016,9 23
21.04.2018 22:00:00 4,2 3,0 14 8 SW 1017,0 35
21.04.2018 21:00:00 5,8 3,6 11 6 WSW 1017,1 50
21.04.2018 20:00:00 7,0 3,6 14 8 W 1016,9 40
21.04.2018 19:00:00 8,4 4,0 18 10 WSW 1016,9 35
21.04.2018 18:00:00 11,1 4,1 18 10 W 1016,7 30
21.04.2018 17:00:00 12,3 4,0 18 10 W 1016,7 40
21.04.2018 16:00:00 12,3 3,3 22 12 W 1016,8 50
21.04.2018 15:00:00 12,3 3,0 25 14 W 1017,0 45
21.04.2018 14:00:00 12,0 3,5 22 12 W 1016,9 26
21.04.2018 13:00:00 11,8 3,6 25 14 W 1017,0 35
21.04.2018 12:00:00 11,6 3,6 22 12 W 1016,9 40
21.04.2018 11:00:00 11,0 3,5 22 12 W 1016,6 45
21.04.2018 10:00:00 10,3 3,8 22 12 W 1015,9 50
21.04.2018 09:00:00 9,5 3,9 18 10 W 1015,8 45
21.04.2018 08:00:00 8,3 3,7 14 8 W 1015,3 35
21.04.2018 07:00:00 7,2 3,3 14 8 W 1014,8 45
21.04.2018 06:00:00 6,9 2,8 14 8 W 1014,5 50
21.04.2018 05:00:00 7,3 2,8 14 8 W 1014,2 50
21.04.2018 04:00:00 7,0 2,5 11 6 W 1014,2 50
21.04.2018 03:00:00 7,5 3,0 7 4 W 1014,1 50
21.04.2018 02:00:00 7,6 3,5 7 4 WSW 1014,1 50
21.04.2018 01:00:00 8,2 4,4 7 4 W 1014,1 35
21.04.2018 00:00:00 8,2 5,1 11 6 W 1014,0 16
20.04.2018 23:00:00 9,4 6,3 14 8 W 1013,6 13
20.04.2018 22:00:00 11,5 6,8 18 10 W 1013,3 14
20.04.2018 21:00:00 11,4 6,5 11 6 SW 1013,3 12
20.04.2018 20:00:00 12,6 8,3 11 6 W 1013,5 13
20.04.2018 19:00:00 14,8 9,2 14 8 WSW 1013,6 20
20.04.2018 18:00:00 18,2 9,8 25 14 SSW 1013,5 21
20.04.2018 17:00:00 19,9 9,8 32 18 SSW 1014,3 35
20.04.2018 16:00:00 20,6 10,4 40 21 SSW 1015,3 29
20.04.2018 15:00:00 20,4 9,9 32 18 SSW 1016,5 30
20.04.2018 14:00:00 20,6 10,4 36 19 SSW 1017,5 35
20.04.2018 13:00:00 19,5 10,8 29 16 SSW 1018,6 35
20.04.2018 12:00:00 18,5 10,6 22 12 SSW 1019,5 21
20.04.2018 11:00:00 17,0 11,1 22 12 SSW 1020,3 24
20.04.2018 10:00:00 16,2 10,9 18 10 SSW 1021,2 26
20.04.2018 09:00:00 13,8 10,0 22 12 S 1022,0 35
20.04.2018 08:00:00 12,0 9,2 22 12 S 1022,6 35
20.04.2018 07:00:00 10,5 8,3 14 8 S 1023,2 35
20.04.2018 06:00:00 10,4 8,3 14 8 S 1024,5 20
20.04.2018 05:00:00 10,4 8,3 14 8 S 1024,5 20
20.04.2018 04:00:00 10,8 8,0 18 10 S 1025,3 40
20.04.2018 03:00:00 9,6 6,9 14 8 SSW 1025,8 50
20.04.2018 02:00:00 9,8 7,4 22 12 S 1026,4 50
20.04.2018 01:00:00 9,7 7,5 14 8 S 1026,9 50
20.04.2018 00:00:00 9,9 7,7 7 4 SSE 1027,4 45
19.04.2018 23:00:00 9,6 7,4 7 4 S 1028,0 45
19.04.2018 22:00:00 9,4 7,8 11 6 S 1028,6 50
19.04.2018 21:00:00 10,4 8,5 11 6 SSW 1028,8 50
19.04.2018 20:00:00 13,3 9,5 7 4 SW 1028,8 50
19.04.2018 19:00:00 15,3 9,9 11 6 WSW 1029,1 50
19.04.2018 18:00:00 16,6 10,2 11 6 WSW 1029,3 45
19.04.2018 17:00:00 16,3 10,2 11 6 WSW 1029,7 45
19.04.2018 16:00:00 15,7 10,5 11 6 SSW 1030,2 30
19.04.2018 15:00:00 13,8 10,0 11 6 SW 1031,2 35
19.04.2018 14:00:00 12,7 9,7 7 4 SW 1031,4 30
19.04.2018 13:00:00 12,0 9,9 7 4 WSW 1031,5 19
19.04.2018 12:00:00 11,0 9,4 7 4 SSW 1031,8 15
19.04.2018 11:00:00 10,4 9,9 4 2 SSW 1031,6 11
19.04.2018 10:00:00 9,6 9,3 7 4 SW 1031,8 1,8
19.04.2018 09:00:00 9,0 8,7 4 2 SW 1031,7 1,1
19.04.2018 08:00:00 8,6 8,3 7 4 SW 1031,4 1,1
19.04.2018 07:00:00 8,3 8,0 7 4 SW 1031,1 0,2
19.04.2018 06:00:00 8,1 7,8 4 2 SW 1030,9 0,2
19.04.2018 05:00:00 8,1 7,8 7 4 SSW 1030,9 0,1
19.04.2018 04:00:00 8,4 8,1 11 6 W 1031,1 0,1
19.04.2018 03:00:00 8,5 8,2 7 4 W 1030,9 0,1
19.04.2018 02:00:00 8,6 8,3 7 4 W 1031,1 0,2
19.04.2018 01:00:00 8,8 8,3 7 4 W 1031,0 1,9
19.04.2018 00:00:00 9,1 8,3 14 8 W 1030,6 4,5
18.04.2018 23:00:00 9,0 8,2 11 6 WSW 1030,2 5
18.04.2018 22:00:00 9,8 8,7 11 6 W 1030,3 9
18.04.2018 21:00:00 10,4 8,8 18 10 W 1030,0 11
18.04.2018 20:00:00 10,6 8,4 14 8 W 1029,6 16
18.04.2018 19:00:00 12,4 8,7 14 8 W 1029,0 28
18.04.2018 18:00:00 13,7 8,5 18 10 W 1029,3 24
18.04.2018 17:00:00 14,6 8,5 22 12 W 1028,9 35
18.04.2018 16:00:00 14,8 9,0 22 12 W 1028,6 26
18.04.2018 15:00:00 14,4 9,2 14 8 WNW 1028,7 23
18.04.2018 14:00:00 11,1 8,5 14 8 W 1028,8 14
18.04.2018 13:00:00 9,5 8,4 14 8 WSW 1028,5 8
18.04.2018 12:00:00 8,7 8,3 11 6 SW 1027,9 2,3
18.04.2018 11:00:00 8,6 7,5 11 6 W 1027,6 6
18.04.2018 10:00:00 8,8 7,4 14 8 WSW 1026,9 18
18.04.2018 09:00:00 9,3 6,0 18 10 SW 1026,1 30
18.04.2018 08:00:00 8,5 6,0 14 8 S 1025,8 20
18.04.2018 07:00:00 8,3 5,6 14 8 S 1025,6 22
18.04.2018 06:00:00 8,6 5,5 22 12 SSW 1025,5 15
18.04.2018 05:00:00 8,1 5,6 14 8 SSW 1025,6 29
18.04.2018 04:00:00 7,7 5,3 18 10 SSW 1025,8 18
18.04.2018 03:00:00 7,2 5,0 18 10 S 1025,7 20
18.04.2018 02:00:00 6,5 5,1 11 6 S 1025,9 12
18.04.2018 01:00:00 6,0 5,0 14 8 S 1025,8 10
18.04.2018 00:00:00 5,9 5,0 14 8 S 1025,8 8
17.04.2018 23:00:00 6,5 5,4 14 8 S 1025,6 9
17.04.2018 22:00:00 6,6 5,5 11 6 S 1025,4 10
17.04.2018 21:00:00 6,9 5,8 11 6 SSW 1025,3 9
17.04.2018 20:00:00 7,6 6,2 14 8 SSW 1024,7 8
17.04.2018 19:00:00 8,1 6,2 11 6 WSW 1024,8 14
17.04.2018 18:00:00 9,5 6,4 11 6 W 1024,5 22
17.04.2018 17:00:00 8,7 6,3 11 6 WSW 1024,3 35
17.04.2018 16:00:00 8,1 6,2 11 6 WSW 1024,1 30
17.04.2018 15:00:00 7,3 5,6 11 6 WSW 1024,0 40
17.04.2018 14:00:00 7,1 5,7 14 8 WSW 1023,7 30
17.04.2018 13:00:00 6,5 6,2 14 8 SW 1023,3 4,6
17.04.2018 12:00:00 5,8 5,5 14 8 SW 1022,8 0,9
17.04.2018 11:00:00 5,9 5,6 11 6 SW 1022,2 0,4
17.04.2018 10:00:00 6,3 6,0 11 6 WSW 1021,7 0,2
17.04.2018 09:00:00 6,1 5,8 11 6 W 1020,9 0,2
17.04.2018 08:00:00 6,2 5,9 11 6 W 1020,4 0,2
17.04.2018 07:00:00 6,4 6,0 11 6 WSW 1019,7 0,4
17.04.2018 06:00:00 6,9 6,3 11 6 SW 1019,0 5
17.04.2018 05:00:00 6,7 6,1 4 2 S 1018,7 9
17.04.2018 04:00:00 6,8 6,1 7 4 SE 1018,6 10
17.04.2018 03:00:00 6,8 6,1 11 6 SE 1018,7 14

tt = Température de l'air
td = dewpoint
ff = Vitesse du vent
dd = Direction du vent
ppp = reduced air pressure
vv = visibility

stations d'obs. à proximité